C/2012 A2 ( LINEAR )

Japanese version
Home page
Updated on August 26, 2014

---------------------------------------------------------------------

* Profile

Discovery Date January 15, 2012
Magnitude 18.5 mag
Discoverer Lincoln Laboratory Near-Earth Asteroid Research project

* Pictures

* Orbital Elements

Epoch 2012 Nov. 9.0 TT = JDT 2456240.5
T 2012 Nov. 5.09113 TT                                  MPC
q   3.5374738            (2000.0)            P               Q
z  +0.0010298      Peri.  101.66959     +0.08481542     +0.98342906
 +/-0.0000002      Node   191.40403     +0.23708610     +0.13627215
e   0.9963572      Incl.  125.86863     +0.96777917     -0.11957085
From 2423 observations 2011 Apr. 2-2014 Jan. 11, mean residual 0".5.

* Finding Charts

* Magnitudes Graph

        m1 = 5.5 + 5 log d + 13.0 log r(t - 100)

---------------------------------------------------------------------

The orbital elements are published on M.P.E.C. 2014-B85.
The charts are made with StellaNavigator Ver.8 (AstroArts).
The magnitudes graphs are made with Comet for Windows.

---------------------------------------------------------------------

Copyright(C) Seiichi Yoshida (comet@aerith.net). All rights reserved.